カタログに戻る

STARLINK-2504

運用中通信VLEO
NORAD 48328·PAYLOAD·🇺🇸 United States

打ち上げ Apr 29, 2021 から Cape Canaveral Space Force Station

Loading…

次のパス (今後24時間)

TLE

最新Source: CelesTrak SupGP

元期: Sep 14, 2026, 12:30 UTC

1 48328C 21036BE  26257.52131944  .00037933  00000+0  12196-2 0  2570
2 48328  53.1572 302.2106 0001198  73.1148  86.7046 15.31689223    19

AllMySatでSTARLINK-2504をリアルタイム追跡

Download on the App Store